Location: Arrodets-la-Barthe
(43.0306°N, 0.2829°E)
Time: 13:41:10
(UTC+00:00)

CZ-4C R/B - Pass Details

Date: 24 October 2021
Orbit: 403 x 482 km, 97.7° (Epoch: 07 December)

Event Time Altitude Azimuth Distance (km) Brightness Sun altitude
Rises 18:34:15 0° 8° (N) 2,455 6.6 -17.5°
Reaches altitude 10° 18:36:20 10° 4° (N) 1,564 5.6 -17.9°
Maximum altitude 18:39:36 54° 286° (WNW) 530 3.5 -18.5°
Drops below altitude 10° 18:42:46 10° 208° (SSW) 1,508 5.9 -19.1°
Sets 18:44:45 0° 203° (SSW) 2,355 6.8 -19.4°
